Temp
-11 -11 -11 -12 -11 -11 -12 -12 -12 -12 -11 -11 -12 -12 -12 -12 -12 -12 -13 -12 -12 -12 -12 -12 -13 -13 -13 -13 -14 -14 -14 -14 -14 -13 -14 -14 -13 -14 -13 -13 -13 -12 -12
-11 -11 -11 -11 -12 -12 -12 -11 -12 -12 -11 -11 -12 -12 -12 -11 -12 -12 -12 -12 -12 -12 -12 -13 -13 -13 -13 -13 -14 -14 -14 -13 -14 -13 -14 -13 -13 -13 -13 -12 -12 -12 -11
-11 -11 -11 -11 -12 -12 -11 -11 -12 -12 -11 -12 -12 -11 -12 -12 -12 -12 -12 -12 -12 -12 -12 -12 -12 -12 -13 -13 -13 -13 -13 -14 -14 -14 -14 -13 -13 -13 -13 -13 -12 -12 -12
-11 -11 -11 -11 -12 -11 -11 -12 -12 -12 -11 -12 -12 -12 -12 -11 -12 -12 -12 -12 -12 -12 -12 -12 -12 -12 -12 -12 -12 -13 -13 -13 -13 -13 -14 -14 -13 -13 -12 -12 -12 -12 -12
-11 -11 -11 -11 -11 -11 -11 -12 -12 -12 -12 -12 -12 -12 -12 -12 -12 -12 -12 -12 -12 -12 -12 -12 -12 -12 -12 -12 -12 -12 -12 -12 -12 -12 -13 -13 -12 -12 -12 -12 -11 -11 -12
-11 -11 -11 -11 -11 -11 -11 -11 -12 -12 -12 -12 -12 -11 -11 -12 -12 -12 -12 -12 -12 -12 -12 -12 -12 -12 -12 -12 -12 -12 -12 -12 -11 -12 -11 -11 -12 -12 -12 -12 -12 -12 -12
-11 -11 -11 -11 -11 -11 -11 -11 -12 -12 -12 -12 -12 -12 -11 -12 -12 -12 -12 -12 -12 -12 -12 -12 -12 -12 -12 -11 -12 -12 -12 -12 -12 -12 -12 -12 -11 -12 -12 -12 -12 -12 -12
-11 -11 -11 -11 -11 -11 -11 -11 -11 -12 -12 -12 -12 -12 -12 -12 -12 -12 -12 -12 -12 -12 -12 -12 -12 -12 -12 -12 -11 -11 -11 -11 -11 -11 -12 -12 -12 -12 -12 -12 -12 -12 -12
-11 -11 -11 -12 -11 -11 -11 -11 -11 -11 -11 -12 -12 -12 -12 -12 -12 -12 -12 -12 -12 -12 -11 -11 -11 -11 -11 -11 -11 -11 -11 -11 -11 -12 -12 -12 -12 -12 -12 -12 -12 -12 -12
-11 -11 -11 -12 -12 -12 -12 -12 -11 -11 -12 -12 -12 -12 -12 -12 -12 -11 -11 -12 -12 -12 -12 -11 -11 -11 -11 -11 -11 -12 -11 -11 -11 -11 -11 -12 -12 -12 -12 -12 -11 -13 -13
-11 -11 -12 -12 -12 -12 -12 -12 -12 -11 -11 -11 -12 -12 -12 -12 -12 -11 -11 -12 -12 -11 -11 -11 -11 -11 -11 -11 -11 -12 -12 -11 -11 -11 -12 -12 -12 -13 -12 -12 -13 -13 -13
-11 -11 -11 -12 -12 -12 -12 -12 -12 -11 -11 -11 -11 -12 -12 -12 -12 -12 -12 -12 -12 -11 -11 -11 -11 -11 -11 -11 -11 -11 -11 -11 -12 -12 -12 -12 -12 -12 -13 -13 -13 -13 -13
-12 -12 -12 -12 -12 -12 -12 -12 -12 -12 -11 -11 -11 -11 -12 -12 -12 -12 -12 -12 -12 -11 -11 -11 -11 -11 -11 -11 -11 -12 -12 -12 -12 -12 -12 -12 -12 -13 -13 -13 -13 -13 -13
-12 -12 -12 -12 -12 -12 -12 -12 -12 -12 -12 -12 -11 -12 -12 -12 -12 -12 -12 -12 -12 -12 -12 -11 -11 -11 -11 -12 -12 -12 -12 -12 -12 -12 -12 -12 -13 -13 -13 -13 -13 -13 -13
-12 -12 -12 -12 -12 -12 -12 -12 -12 -12 -12 -12 -12 -12 -12 -12 -12 -11 -12 -12 -12 -13 -12 -12 -12 -12 -12 -12 -12 -12 -12 -12 -12 -13 -13 -13 -13 -13 -13 -13 -13 -13 -13
-12 -12 -12 -12 -12 -12 -12 -12 -12 -12 -12 -12 -12 -12 -12 -12 -12 -13 -13 -13 -13 -12 -12 -12 -12 -12 -12 -12 -12 -12 -12 -13 -13 -13 -13 -13 -13 -13 -13 -13 -13 -13 -13
-12 -12 -12 -12 -12 -12 -12 -12 -12 -12 -12 -12 -12 -12 -12 -12 -12 -12 -12 -13 -13 -12 -12 -13 -13 -13 -13 -13 -13 -13 -13 -13 -13 -13 -13 -13 -13 -13 -13 -13 -14 -14 -14
-12 -12 -12 -12 -12 -12 -12 -12 -12 -12 -12 -12 -13 -13 -12 -12 -12 -12 -12 -12 -12 -12 -12 -12 -12 -12 -12 -13 -13 -13 -13 -13 -13 -13 -13 -13 -13 -13 -14 -14 -14 -14 -14
-12 -12 -12 -11 -12 -12 -12 -12 -12 -12 -12 -13 -13 -13 -13 -13 -13 -13 -12 -12 -12 -12 -12 -12 -12 -12 -12 -12 -13 -13 -13 -13 -13 -13 -13 -13 -13 -13 -13 -13 -13 -14 -14
-12 -12 -12 -12 -11 -12 -12 -12 -12 -12 -12 -13 -13 -13 -13 -13 -13 -13 -13 -13 -12 -12 -12 -12 -13 -13 -13 -13 -12 -13 -13 -13 -13 -13 -13 -13 -13 -13 -13 -13 -13 -13 -13
-12 -12 -12 -11 -12 -11 -12 -12 -12 -12 -12 -12 -12 -13 -12 -12 -12 -13 -13 -13 -13 -13 -12 -13 -13 -12 -13 -13 -13 -13 -13 -13 -13 -13 -13 -13 -13 -14 -13 -13 -13 -13 -13
-13 -12 -12 -12 -12 -12 -12 -12 -12 -12 -12 -12 -12 -12 -12 -12 -12 -12 -12 -12 -12 -13 -13 -13 -13 -13 -13 -13 -13 -13 -14 -14 -14 -14 -14 -14 -13 -13 -13 -13 -13 -13 -13
-12 -12 -12 -12 -12 -12 -12 -12 -12 -12 -12 -12 -12 -12 -12 -12 -12 -12 -12 -12 -12 -12 -12 -12 -13 -13 -13 -13 -13 -13 -14 -14 -14 -14 -13 -13 -14 -14 -14 -14 -14 -14 -14
-13 -13 -12 -13 -12 -12 -12 -12 -12 -12 -12 -12 -12 -13 -12 -12 -12 -12 -12 -12 -12 -12 -12 -13 -13 -13 -13 -13 -13 -13 -13 -13 -13 -14 -14 -13 -13 -13 -13 -13 -14 -14 -14
-12 -13 -13 -13 -13 -12 -12 -12 -12 -12 -11 -11 -11 -12 -12 -12 -12 -12 -12 -12 -12 -12 -12 -12 -12 -13 -13 -13 -13 -13 -13 -13 -13 -13 -13 -13 -13 -13 -13 -14 -14 -14 -14
-13 -13 -13 -13 -13 -13 -12 -12 -12 -12 -12 -12 -12 -12 -12 -12 -12 -12 -12 -12 -12 -12 -12 -12 -12 -12 -12 -12 -12 -13 -13 -13 -14 -14 -13 -13 -14 -13 -13 -13 -14 -14 -15
Height
5730 5729 5727 5723 5721 5719 5717 5716 5715 5714 5713 5713 5712 5711 5710 5710 5709 5706 5702 5701 5699 5697 5696 5696 5697 5697 5696 5699 5701 5703 5706 5709 5714 5718 5722 5727 5732 5737 5744 5750 5757 5763 5768
5727 5725 5723 5719 5718 5716 5715 5715 5714 5712 5712 5712 5711 5711 5710 5711 5709 5706 5703 5701 5699 5698 5697 5696 5696 5697 5698 5699 5703 5705 5706 5710 5714 5718 5721 5726 5733 5739 5744 5750 5757 5762 5768
5723 5721 5719 5717 5716 5715 5714 5714 5713 5712 5712 5711 5711 5710 5710 5711 5710 5707 5705 5703 5702 5700 5698 5698 5697 5698 5700 5701 5702 5705 5707 5710 5714 5719 5723 5727 5733 5739 5744 5750 5755 5761 5766
5720 5718 5717 5716 5715 5714 5713 5713 5712 5711 5711 5711 5711 5711 5711 5711 5711 5710 5708 5706 5704 5702 5701 5700 5700 5701 5702 5702 5704 5705 5708 5710 5714 5718 5724 5728 5732 5738 5744 5750 5755 5760 5766
5718 5716 5715 5714 5714 5713 5712 5712 5712 5710 5709 5710 5711 5711 5711 5711 5712 5712 5710 5709 5707 5705 5704 5703 5703 5703 5704 5705 5705 5706 5707 5710 5714 5718 5722 5728 5733 5740 5746 5753 5758 5763 5767
5717 5715 5713 5713 5712 5712 5712 5712 5712 5710 5709 5709 5711 5710 5711 5711 5712 5713 5713 5711 5710 5710 5708 5707 5707 5707 5707 5708 5709 5709 5710 5714 5718 5722 5726 5732 5738 5744 5749 5755 5760 5766 5771
5715 5714 5712 5711 5711 5712 5712 5711 5711 5709 5708 5707 5709 5709 5710 5711 5712 5714 5714 5714 5713 5713 5713 5713 5712 5712 5712 5713 5713 5714 5715 5718 5723 5729 5734 5738 5743 5748 5754 5759 5764 5768 5772
5715 5714 5713 5711 5712 5711 5711 5710 5709 5707 5705 5705 5707 5708 5710 5712 5714 5715 5716 5717 5717 5716 5717 5717 5717 5717 5717 5718 5719 5720 5722 5724 5728 5732 5737 5743 5748 5753 5757 5762 5767 5771 5774
5716 5716 5714 5713 5713 5711 5711 5710 5709 5708 5707 5706 5707 5708 5710 5712 5715 5716 5718 5719 5720 5720 5720 5720 5720 5720 5721 5723 5725 5728 5730 5732 5734 5737 5742 5747 5752 5756 5762 5766 5770 5772 5775
5717 5717 5716 5715 5715 5712 5711 5711 5710 5709 5709 5707 5707 5709 5711 5713 5715 5717 5719 5721 5722 5722 5722 5722 5723 5723 5724 5726 5729 5732 5735 5738 5741 5743 5747 5751 5755 5760 5764 5767 5768 5771 5773
5718 5718 5717 5717 5716 5714 5714 5712 5710 5709 5708 5706 5706 5709 5712 5714 5717 5719 5721 5723 5724 5725 5725 5725 5726 5726 5727 5729 5732 5735 5738 5742 5744 5748 5752 5754 5757 5761 5764 5767 5770 5773 5775
5718 5719 5718 5718 5717 5717 5717 5715 5713 5710 5708 5707 5705 5707 5713 5715 5718 5720 5723 5724 5726 5727 5728 5730 5729 5730 5731 5732 5735 5738 5740 5744 5748 5752 5754 5758 5760 5763 5767 5769 5772 5775 5776
5720 5720 5719 5719 5719 5719 5719 5718 5717 5715 5711 5709 5708 5710 5715 5718 5721 5723 5725 5727 5728 5729 5730 5732 5734 5735 5735 5736 5739 5742 5745 5748 5751 5755 5758 5761 5764 5766 5769 5771 5774 5775 5777
5720 5721 5721 5721 5721 5721 5721 5721 5721 5720 5717 5714 5714 5716 5719 5722 5723 5725 5727 5729 5731 5733 5735 5736 5736 5739 5740 5742 5744 5746 5749 5752 5755 5758 5762 5765 5767 5770 5771 5773 5773 5773 5775
5720 5722 5722 5723 5723 5723 5724 5724 5724 5725 5724 5723 5722 5722 5724 5724 5721 5723 5728 5731 5734 5737 5739 5741 5742 5745 5746 5747 5750 5752 5754 5757 5759 5761 5763 5766 5768 5769 5770 5771 5772 5773 5773
5721 5723 5724 5725 5726 5727 5727 5728 5728 5729 5730 5731 5730 5730 5730 5730 5730 5731 5733 5736 5739 5741 5744 5745 5746 5748 5749 5751 5753 5755 5757 5758 5760 5762 5764 5766 5767 5769 5770 5771 5771 5770 5769
5721 5723 5725 5727 5728 5730 5731 5732 5733 5734 5735 5736 5736 5736 5737 5737 5739 5740 5741 5743 5745 5746 5748 5749 5750 5751 5753 5754 5755 5757 5759 5760 5762 5765 5766 5767 5768 5769 5769 5768 5767 5765 5764
5720 5722 5725 5727 5729 5731 5733 5734 5736 5737 5738 5739 5740 5741 5741 5743 5744 5745 5746 5748 5749 5750 5751 5752 5753 5754 5756 5757 5758 5760 5761 5763 5765 5766 5766 5767 5767 5766 5766 5765 5764 5764 5763
5720 5722 5724 5727 5729 5731 5733 5735 5736 5738 5740 5741 5742 5744 5744 5746 5746 5748 5749 5750 5752 5753 5754 5755 5756 5757 5758 5759 5760 5761 5763 5765 5765 5765 5765 5764 5763 5763 5762 5761 5761 5761 5761
5718 5720 5723 5726 5728 5731 5732 5734 5736 5738 5739 5741 5742 5744 5745 5747 5748 5749 5750 5751 5752 5753 5754 5755 5757 5758 5759 5760 5761 5762 5763 5763 5763 5762 5762 5761 5761 5761 5760 5760 5760 5758 5756
5715 5718 5721 5724 5726 5729 5731 5732 5734 5736 5739 5740 5741 5743 5744 5746 5748 5749 5750 5751 5752 5752 5753 5754 5755 5756 5757 5758 5759 5760 5760 5760 5760 5759 5758 5759 5758 5756 5756 5755 5754 5752 5750
5712 5715 5718 5720 5723 5725 5728 5730 5732 5734 5735 5737 5738 5741 5742 5744 5745 5747 5749 5750 5751 5752 5753 5753 5754 5754 5755 5755 5756 5757 5757 5756 5756 5756 5754 5752 5751 5751 5750 5748 5745 5744 5743
5709 5711 5714 5717 5719 5721 5723 5726 5728 5730 5733 5734 5734 5735 5739 5740 5742 5744 5745 5746 5748 5749 5750 5751 5752 5753 5753 5753 5753 5753 5753 5752 5750 5749 5748 5747 5746 5744 5742 5742 5740 5738 5736
5705 5707 5708 5711 5714 5717 5719 5721 5722 5724 5726 5729 5732 5732 5732 5734 5737 5738 5740 5741 5742 5743 5745 5746 5747 5747 5747 5747 5747 5747 5746 5745 5744 5744 5742 5741 5740 5738 5736 5735 5733 5731 5728
5697 5699 5702 5704 5706 5709 5712 5714 5716 5718 5720 5722 5725 5727 5728 5728 5730 5731 5733 5734 5735 5736 5736 5737 5738 5739 5740 5740 5741 5740 5739 5738 5737 5735 5734 5733 5732 5731 5729 5727 5724 5722 5720
5688 5690 5693 5696 5699 5700 5703 5706 5709 5711 5713 5715 5717 5720 5721 5723 5724 5725 5725 5727 5728 5729 5730 5730 5731 5731 5731 5732 5731 5731 5731 5730 5729 5727 5724 5722 5721 5721 5720 5718 5716 5714 5710
Wind_Speed
14 16 16 19 19 17 16 12 12 10 7 2 3 2 2 5 9 11 7 2 6 2 4 3 7 7 3 13 12 14 15 16 17 20 22 23 24 24 22 22 21 19 18
15 15 15 18 17 15 12 11 10 8 6 3 1 2 0 4 7 12 10 8 6 5 1 4 4 10 10 12 13 13 15 16 19 20 21 22 23 23 23 22 22 20 20
14 15 14 13 12 11 11 8 8 5 5 3 2 0 1 3 6 9 9 9 8 9 4 3 11 10 8 12 12 13 16 19 19 21 20 23 23 26 24 20 18 17 21
14 11 10 9 7 10 8 6 6 4 5 3 3 3 2 3 6 8 9 9 10 9 7 5 6 4 3 6 6 10 12 16 25 28 26 25 21 19 17 16 23 22 25
10 6 8 7 7 9 7 6 0 2 3 5 5 2 2 3 6 8 8 7 8 9 12 10 14 11 11 10 8 7 11 15 17 18 22 20 19 26 25 25 25 18 19
6 6 7 5 5 7 6 4 5 5 5 4 8 7 3 4 8 5 9 10 11 11 13 15 15 19 18 18 16 18 21 22 27 26 30 34 29 28 27 22 21 22 18
6 6 3 3 2 6 6 4 6 7 5 7 6 7 6 5 9 8 9 10 12 10 12 15 14 13 16 19 18 26 30 32 31 27 28 29 26 26 25 27 23 19 18
4 5 4 5 4 3 2 1 5 6 4 3 5 7 6 7 11 9 8 7 12 10 14 18 17 14 14 16 19 27 30 32 31 30 29 25 27 25 28 24 18 13 10
4 4 6 7 7 6 4 2 4 8 6 2 6 7 7 10 11 8 7 8 10 10 12 10 8 10 13 15 18 20 22 26 26 27 30 31 28 27 23 17 12 14 18
3 3 4 7 8 10 8 3 3 6 7 3 2 7 9 13 12 9 9 9 9 9 9 10 10 10 12 15 20 19 17 24 26 28 29 29 26 21 16 16 22 18 14
3 3 5 7 8 11 11 11 7 6 5 4 1 10 11 13 12 9 11 8 8 8 10 11 12 15 20 17 16 23 21 23 25 27 25 21 18 21 22 19 15 12 9
3 4 4 7 7 10 11 14 15 14 8 9 7 15 15 14 13 11 11 9 8 7 9 11 12 17 18 19 22 24 22 25 22 19 22 28 26 21 17 15 13 9 6
4 2 3 3 5 6 9 12 13 18 16 11 12 18 16 13 10 9 10 9 10 10 11 11 11 13 16 20 23 22 23 22 24 26 25 22 19 16 13 11 9 7 4
4 4 4 4 6 7 7 8 10 15 22 17 16 16 16 13 11 11 10 11 14 15 16 16 20 20 23 23 22 27 28 29 27 22 18 17 15 13 10 8 6 4 3
5 3 4 6 7 7 8 9 10 13 19 25 27 25 23 22 14 16 19 15 19 20 22 22 22 23 23 23 22 21 20 18 18 16 15 13 11 9 7 5 3 3 5
7 5 4 6 8 8 10 13 14 16 20 21 24 24 25 25 27 30 27 29 26 20 15 15 16 15 15 16 16 15 14 14 14 13 12 9 8 6 5 3 3 5 7
7 6 6 5 7 10 11 13 14 15 15 16 17 18 17 19 18 19 18 17 16 15 14 12 12 13 12 11 13 13 13 13 12 11 11 8 5 2 1 2 4 6 9
8 9 8 7 7 8 9 11 13 11 10 10 11 13 14 14 14 14 12 12 11 11 11 10 8 7 9 10 11 11 10 8 7 3 2 2 2 3 2 2 4 6 7
9 10 10 9 9 9 9 9 10 11 9 7 6 6 7 8 10 12 12 11 10 10 10 8 7 9 9 9 9 9 7 5 3 3 3 4 3 3 5 7 9 10 12
10 10 11 10 10 10 10 9 10 10 9 8 6 4 2 1 3 5 6 7 8 8 7 6 6 6 7 7 5 2 1 2 4 4 6 7 8 8 10 11 13 16 18
11 12 12 11 11 12 13 13 12 10 11 12 11 10 7 3 2 1 2 1 3 5 6 6 7 9 9 9 7 6 6 8 10 11 13 12 13 15 16 16 18 19 21
16 13 13 13 14 14 13 14 13 13 13 13 13 12 11 11 10 8 6 5 5 5 5 7 9 11 11 12 11 11 11 13 14 15 16 17 18 18 17 18 21 24 24
22 20 17 15 16 15 15 15 15 16 16 16 16 17 14 14 12 11 12 11 10 8 8 8 12 14 15 15 16 16 16 18 19 19 18 19 20 21 21 21 22 25 26
25 24 22 20 18 19 18 19 19 18 17 17 18 19 19 16 16 16 16 16 14 14 13 12 13 15 17 18 20 22 22 23 23 23 24 25 25 27 28 28 28 29 30
28 26 25 25 25 23 23 22 22 22 21 20 18 19 21 21 19 19 19 19 18 18 19 18 17 17 18 19 19 22 25 27 29 30 32 33 33 30 30 32 32 34 35
31 31 30 30 29 28 26 24 24 25 23 24 24 22 22 22 23 23 23 22 21 21 21 22 23 24 23 23 23 24 25 27 29 32 35 37 38 39 36 34 35 31 31
Wind_Direction
295 294 300 307 315 310 311 309 306 290 264 260 311 357 41 34 19 10 10 13 16 30 208 210 180 170 165 144 146 155 166 164 185 182 186 184 179 179 180 184 186 186 190
294 299 303 310 314 316 316 305 297 283 245 168 53 321 74 64 10 17 55 33 12 1 223 246 190 162 129 121 132 146 155 156 163 171 180 178 170 170 165 169 172 183 196
294 308 314 314 317 317 305 293 302 284 230 223 153 216 299 40 22 40 72 67 39 35 70 54 156 138 145 149 150 165 169 172 172 175 177 169 170 168 173 183 190 198 205
309 313 321 327 320 328 307 305 317 285 226 217 178 159 124 106 82 83 75 47 46 50 67 78 118 143 146 128 156 181 190 185 178 178 178 183 185 180 178 156 152 156 162
314 320 315 310 314 318 329 347 310 307 261 225 213 295 277 187 134 85 48 40 80 88 86 90 91 113 114 121 125 138 151 163 179 172 187 180 155 148 137 153 150 148 161
326 332 312 306 306 299 311 323 345 340 308 273 243 241 251 194 158 128 50 90 106 82 80 87 93 98 105 104 110 105 127 128 126 120 128 131 131 139 145 152 145 146 141
345 349 358 18 324 291 290 327 350 333 297 238 238 223 201 176 158 140 70 65 99 101 97 107 104 97 94 106 112 124 125 132 138 127 128 129 125 127 132 136 140 143 146
17 10 40 42 16 349 313 317 355 350 319 258 202 194 184 168 155 140 104 84 98 103 117 118 105 94 101 113 114 126 133 138 137 135 130 128 131 125 133 132 131 133 155
43 37 64 66 42 38 61 71 355 14 6 98 163 173 171 163 159 154 132 106 102 106 119 114 107 99 106 123 127 129 140 138 128 131 134 131 129 128 135 138 139 127 125
81 66 77 70 40 50 57 59 7 351 5 27 182 167 168 167 160 152 142 124 116 121 112 107 99 112 124 133 134 133 130 125 117 122 127 129 133 133 123 119 121 122 114
115 92 67 72 57 56 54 65 51 37 23 6 185 176 161 166 173 169 148 128 123 115 119 122 108 113 121 118 140 140 138 142 131 126 122 127 130 123 123 119 114 112 114
175 125 79 68 67 68 65 63 48 42 43 46 85 152 153 154 162 155 142 139 115 123 126 128 123 128 128 121 132 132 136 139 134 128 122 122 125 131 130 120 115 110 91
175 142 103 78 93 86 82 72 61 50 49 68 87 129 131 142 151 142 135 127 110 96 117 117 114 123 129 122 126 141 133 139 131 127 128 129 129 127 123 118 119 120 120
168 145 118 106 108 104 99 90 77 69 67 87 95 114 125 118 131 149 148 134 123 107 116 122 118 126 121 118 125 126 130 132 134 134 134 129 124 120 123 137 133 110 68
159 145 108 102 96 96 99 98 92 91 89 91 99 104 106 90 103 154 149 134 118 121 121 114 115 117 117 117 120 122 124 128 129 125 116 117 124 132 132 115 84 30 342
161 163 139 124 115 107 100 102 107 103 100 97 98 97 93 86 86 95 121 118 119 120 115 112 111 109 109 113 117 117 118 117 116 120 124 127 122 111 98 63 340 313 315
166 168 166 164 145 134 125 114 116 117 108 98 89 87 87 92 91 94 98 105 112 117 117 116 115 113 117 120 121 121 119 119 121 125 113 104 97 92 170 248 278 289 304
169 165 176 177 179 173 154 142 136 132 118 101 91 90 86 84 89 95 103 111 116 117 114 105 103 120 128 133 132 136 144 130 117 107 142 192 234 269 262 267 279 288 304
182 176 177 186 189 191 196 181 165 157 153 140 124 100 88 87 86 86 89 102 114 121 132 114 117 107 114 160 169 170 155 136 160 179 220 254 275 280 282 294 302 308 311
195 189 190 186 192 200 203 206 205 197 198 196 201 204 193 162 109 100 100 106 121 131 134 135 145 145 132 126 121 114 179 209 237 264 281 296 298 296 300 306 305 307 313
205 205 206 200 208 205 207 210 212 217 217 232 231 232 237 225 180 188 305 304 176 170 174 175 177 193 199 208 230 263 278 286 300 300 299 306 310 306 308 307 306 307 313
231 223 216 217 215 216 217 220 219 219 231 232 236 243 254 258 257 248 244 261 291 283 255 238 232 232 232 236 240 249 258 267 272 278 290 300 305 306 307 306 306 306 309
235 234 226 222 229 230 229 227 227 224 218 229 244 252 236 239 246 260 269 270 264 260 263 273 274 270 267 268 273 277 281 278 272 270 271 277 282 283 286 293 296 301 307
234 237 239 238 231 232 234 237 239 239 238 230 219 229 251 249 244 250 252 252 254 261 266 265 264 266 273 277 280 283 285 288 292 291 291 293 294 293 295 296 299 302 307
229 226 231 232 239 233 228 234 241 243 242 239 235 232 231 239 246 247 248 253 256 257 255 252 251 253 261 269 274 278 281 286 289 290 292 292 292 292 291 291 296 301 305
235 232 231 229 231 235 236 228 232 240 244 245 243 238 239 241 244 248 253 255 258 265 271 277 281 282 278 275 274 274 275 277 280 282 284 287 292 294 295 292 290 293 299